DW1009 Weather Reports


Display with metric or nautical units.
time (UTC)temp
F
wind
direction
speed
MPH
gust
MPH
rain 1hr
in
rain 24hr
in
rain mn
in
humidity
%
barometer
mb
20260507124347 57 240 0.0 1.0 0.00 0.00 0.00 93 1013.6
20260507123348 57 240 0.0 1.0 0.00 0.00 0.00 93 1013.7
20260507122347 57 240 0.0 0.0 0.00 0.00 0.00 93 1013.7
20260507121348 58 240 0.0 0.0 0.00 0.00 0.00 93 1013.7
20260507120347 58 240 0.0 0.0 0.00 0.00 0.00 93 1013.7
20260507115347 58 240 0.0 0.0 0.00 0.00 0.00 93 1013.8
20260507114349 58 240 0.0 0.0 0.00 0.00 0.00 93 1013.7
20260507113347 59 240 0.0 1.0 0.00 0.00 0.00 93 1013.8
20260507111348 59 220 1.0 1.0 0.00 0.00 0.00 94 1013.9
20260507110347 59 209 0.0 1.0 0.00 0.00 0.00 94 1013.8
20260507105347 59 205 0.0 1.0 0.00 0.00 0.00 94 1013.9
20260507104347 60 204 0.0 2.0 0.00 0.00 0.00 94 1014.0
20260507103347 59 207 0.0 1.0 0.00 0.00 0.00 94 1014.0
20260507102347 59 192 0.0 2.0 0.00 0.00 0.00 94 1014.1
20260507101347 59 267 0.0 2.0 0.00 0.00 0.00 93 1014.1
20260507100347 59 275 0.0 0.0 0.00 0.00 0.00 92 1014.2
20260507095347 59 275 0.0 0.0 0.00 0.00 0.00 92 1014.2
20260507094347 59 275 0.0 0.0 0.00 0.00 0.00 92 1014.2
20260507092347 60 275 0.0 2.0 0.00 0.00 0.00 92 1014.4
20260507091347 60 268 1.0 1.0 0.00 0.00 0.00 92 1014.4
20260507090347 60 267 0.0 3.0 0.00 0.00 0.00 92 1014.5
20260507085347 60 296 0.0 1.0 0.00 0.00 0.00 92 1014.6
20260507084347 60 245 0.0 2.0 0.00 0.00 0.00 92 1014.7
20260507083347 60 209 2.0 3.0 0.00 0.00 0.00 92 1014.8
20260507082347 60 257 1.0 3.0 0.00 0.00 0.00 92 1014.9
20260507081347 60 355 1.0 3.0 0.00 0.00 0.00 92 1014.9
20260507080347 60 258 0.0 3.0 0.00 0.00 0.00 92 1014.9
20260507075347 60 286 0.0 4.0 0.00 0.00 0.00 92 1015.0
20260507074347 60 217 2.0 3.0 0.00 0.00 0.00 92 1015.1
20260507073347 60 244 0.0 4.0 0.00 0.00 0.00 92 1015.2
20260507072347 60 234 3.0 5.0 0.00 0.00 0.00 92 1015.1
20260507071347 60 259 2.0 5.0 0.00 0.00 0.00 93 1015.1
20260507070347 60 271 2.0 5.0 0.00 0.00 0.00 93 1015.1
20260507065347 60 270 1.0 2.0 0.00 0.00 0.00 94 1015.1
20260507064347 60 259 0.0 2.0 0.00 0.00 0.00 94 1015.2
20260507063347 60 297 1.0 2.0 0.00 0.00 0.00 93 1015.3
20260507062347 60 265 0.0 3.0 0.00 0.00 0.00 93 1015.3
20260507061347 60 298 1.0 3.0 0.00 0.00 0.00 93 1015.3
20260507060347 60 282 1.0 3.0 0.00 0.00 0.00 93 1015.3
20260507055348 60 344 0.0 4.0 0.00 0.00 0.00 93 1015.4
20260507054347 60 346 1.0 3.0 0.00 0.00 0.00 93 1015.3
20260507053346 60 242 1.0 3.0 0.00 0.00 0.00 93 1015.3
20260507052347 60 255 1.0 4.0 0.00 0.00 0.00 93 1015.4
20260507050348 61 246 1.0 3.0 0.00 0.00 0.00 92 1015.4
20260507045347 61 272 2.0 3.0 0.00 0.00 0.00 91 1015.3
20260507043346 61 342 2.0 4.0 0.00 0.00 0.00 91 1015.2
20260507042347 61 169 1.0 6.0 0.00 0.00 0.00 90 1015.2
20260507041347 62 267 3.0 6.0 0.00 0.00 0.00 91 1015.1
20260507040346 62 262 3.0 6.0 0.00 0.00 0.00 90 1015.0
20260507035347 62 238 1.0 8.0 0.00 0.00 0.00 90 1014.9
20260507034347 62 336 2.0 5.0 0.00 0.00 0.00 90 1014.7
20260507033346 62 340 0.0 5.0 0.00 0.00 0.00 90 1014.6
20260507031346 62 340 3.0 8.0 0.00 0.00 0.00 89 1014.5
20260507030347 62 281 2.0 9.0 0.00 0.00 0.00 88 1014.4
20260507025347 63 129 1.0 10.0 0.00 0.00 0.00 88 1014.3
20260507023347 63 195 1.0 4.0 0.00 0.00 0.00 87 1014.2
20260507022347 64 260 1.0 4.0 0.00 0.00 0.00 86 1014.1
20260507021346 64 270 2.0 7.0 0.00 0.00 0.00 85 1014.1
20260507020346 64 306 1.0 7.0 0.00 0.00 0.00 84 1014.1
20260507015346 65 269 1.0 7.0 0.00 0.00 0.00 84 1014.1
20260507014346 65 277 2.0 8.0 0.00 0.00 0.00 83 1014.0
20260507013346 66 272 2.0 5.0 0.00 0.00 0.00 83 1014.1
20260507011346 66 309 3.0 7.0 0.00 0.00 0.00 83 1014.1
20260507005346 66 192 1.0 7.0 0.00 0.00 0.00 83 1014.0
20260507002346 67 40 2.0 10.0 0.00 0.00 0.00 81 1014.1
20260507000346 67 278 3.0 8.0 0.00 0.00 0.00 82 1014.0
20260506235346 67 120 2.0 8.0 0.00 0.00 0.00 82 1014.1
20260506234347 67 46 1.0 8.0 0.00 0.00 0.00 82 1014.0
20260506233346 68 283 3.0 8.0 0.00 0.00 0.00 80 1014.1
20260506232346 67 208 5.0 8.0 0.00 0.00 0.00 80 1014.1
20260506230346 67 217 2.0 10.0 0.00 0.00 0.00 80 1014.3
20260506224346 67 236 4.0 10.0 0.00 0.00 0.00 80 1014.4
20260506223346 67 229 5.0 10.0 0.00 0.00 0.00 80 1014.6
20260506222346 67 241 4.0 9.0 0.00 0.00 0.00 81 1014.7
20260506221346 66 278 3.0 9.0 0.00 0.00 0.00 81 1014.8
20260506220346 67 273 7.0 11.0 0.00 0.00 0.00 80 1014.9
20260506215346 66 257 2.0 9.0 0.00 0.00 0.00 81 1015.0
20260506214346 67 221 4.0 8.0 0.00 0.00 0.00 80 1015.1
20260506213346 67 317 1.0 9.0 0.00 0.00 0.00 80 1015.2
20260506211346 66 240 9.0 10.0 0.00 0.00 0.00 80 1015.2
20260506210346 66 220 7.0 9.0 0.00 0.00 0.00 80 1015.4
20260506205346 67 212 3.0 8.0 0.00 0.00 0.00 80 1015.3
20260506204346 66 271 7.0 8.0 0.00 0.00 0.00 82 1015.5
20260506203346 66 237 6.0 9.0 0.00 0.00 0.00 82 1015.7
20260506202346 65 220 2.0 8.0 0.00 0.00 0.00 82 1015.7
20260506200346 65 189 1.0 7.0 0.00 0.00 0.00 84 1015.8
20260506195346 65 238 6.0 9.0 0.00 0.00 0.00 83 1015.9
20260506194347 65 247 1.0 8.0 0.00 0.00 0.00 83 1015.9
20260506192345 65 258 4.0 9.0 0.00 0.00 0.00 82 1016.2
20260506191347 65 225 4.0 8.0 0.00 0.00 0.00 83 1016.3
20260506190346 65 209 5.0 8.0 0.00 0.00 0.00 82 1016.4
20260506185346 65 211 3.0 7.0 0.00 0.00 0.00 83 1016.4
20260506183346 65 234 6.0 9.0 0.00 0.00 0.00 82 1016.5
20260506180345 65 200 6.0 7.0 0.00 0.00 0.00 82 1016.5
20260506175345 64 269 3.0 7.0 0.00 0.00 0.00 82 1016.6
20260506174345 64 342 4.0 6.0 0.00 0.00 0.00 82 1016.5
20260506173345 64 262 2.0 8.0 0.00 0.00 0.00 81 1016.5
20260506172346 64 281 3.0 6.0 0.00 0.00 0.00 81 1016.5
20260506171346 64 338 2.0 6.0 0.00 0.00 0.00 81 1016.5
20260506170346 64 219 5.0 6.0 0.00 0.00 0.00 80 1016.4
20260506165345 64 234 2.0 5.0 0.00 0.00 0.00 80 1016.2
20260506164346 64 349 2.0 6.0 0.00 0.00 0.00 81 1016.3
20260506163346 64 273 3.0 5.0 0.00 0.00 0.00 81 1016.2
20260506162346 64 314 3.0 4.0 0.00 0.00 0.00 82 1016.2
20260506161347 64 340 1.0 4.0 0.00 0.00 0.00 82 1016.3
20260506160346 64 284 0.0 3.0 0.00 0.00 0.00 82 1016.1
20260506155345 63 105 1.0 3.0 0.00 0.00 0.00 84 1016.2
20260506154346 62 114 0.0 4.0 0.00 0.00 0.00 85 1016.1
20260506152345 61 114 1.0 3.0 0.00 0.00 0.00 89 1016.2
20260506151346 60 39 3.0 3.0 0.00 0.00 0.00 90 1016.3
20260506145345 59 55 1.0 2.0 0.00 0.00 0.00 91 1016.3
20260506144346 58 36 0.0 3.0 0.00 0.00 0.00 92 1016.3
20260506143346 58 47 0.0 3.0 0.00 0.00 0.00 92 1016.1
20260506142345 57 113 1.0 3.0 0.00 0.00 0.00 93 1016.2
20260506141345 57 117 0.0 3.0 0.00 0.00 0.00 93 1016.1
20260506140345 57 56 3.0 3.0 0.00 0.00 0.00 93 1016.0
20260506135345 56 76 0.0 3.0 0.00 0.00 0.00 93 1016.0
20260506133345 56 51 1.0 2.0 0.00 0.00 0.00 93 1015.9
20260506131346 56 32 1.0 3.0 0.00 0.00 0.00 93 1015.7
20260506130345 55 61 0.0 2.0 0.00 0.00 0.00 93 1015.5
20260506125345 55 94 1.0 2.0 0.00 0.00 0.00 93 1015.4